• In Hungary
  • List of Countries
  • For 7 days
  • Water Temperature
  • Satellite Maps
  • Weather Map
  • News
  • Weather Widgets
  • user-avatar
    Login

    Hourly Weather Odoje

    Today, 17 October, Tuesday

    Time Temperature Precipitation Wind Pressure Humidity
    00:00 +12°C° 0 mm 3 mps 754 mmHg 95%
    01:00 +13°C° 0 mm 2 mps 754 mmHg 95%
    02:00 +12°C° 0 mm 2 mps 754 mmHg 96%
    03:00 +12°C° 0 mm 2 mps 754 mmHg 96%
    04:00 +12°C° 0 mm 2 mps 754 mmHg 97%
    05:00 +12°C° 0.2 mm 2 mps 754 mmHg 97%
    06:00 +12°C° 0.2 mm 2 mps 754 mmHg 97%
    07:00 +12°C° 0 mm 2 mps 754 mmHg 96%
    08:00 +13°C° 0 mm 2 mps 754 mmHg 91%
    09:00 +14°C° 0 mm 3 mps 754 mmHg 86%
    10:00 +16°C° 0 mm 3 mps 754 mmHg 81%
    11:00 +17°C° 0 mm 3 mps 754 mmHg 77%
    12:00 +19°C° 0 mm 4 mps 754 mmHg 74%
    13:00 +20°C° 0 mm 4 mps 753 mmHg 70%
    14:00 +19°C° 0 mm 4 mps 753 mmHg 73%
    15:00 +18°C° 0 mm 4 mps 752 mmHg 75%
    16:00 +18°C° 0 mm 4 mps 752 mmHg 78%
    17:00 +17°C° 0 mm 4 mps 752 mmHg 80%
    18:00 +15°C° 0 mm 4 mps 752 mmHg 82%
    19:00 +14°C° 0 mm 4 mps 751 mmHg 84%
    20:00 +14°C° 0 mm 4 mps 751 mmHg 85%
    21:00 +14°C° 0 mm 3 mps 751 mmHg 87%
    22:00 +13°C° 0 mm 3 mps 751 mmHg 88%
    23:00 +13°C° 0 mm 3 mps 751 mmHg 89%

    Tomorrow, 18 October, Wednesday

    Time Temperature Precipitation Wind Pressure Humidity
    00:00 +13°C° 0 mm 3 mps 751 mmHg 90%
    01:00 +12°C° 0 mm 3 mps 751 mmHg 91%
    02:00 +12°C° 0 mm 3 mps 750 mmHg 92%
    03:00 +12°C° 0 mm 3 mps 750 mmHg 93%
    04:00 +12°C° 0 mm 3 mps 749 mmHg 93%
    05:00 +12°C° 0 mm 3 mps 749 mmHg 94%
    06:00 +12°C° 0 mm 3 mps 749 mmHg 94%
    07:00 +12°C° 0 mm 3 mps 749 mmHg 94%
    08:00 +13°C° 0 mm 4 mps 749 mmHg 86%
    09:00 +14°C° 0 mm 4 mps 750 mmHg 79%
    10:00 +17°C° 0 mm 4 mps 750 mmHg 71%
    11:00 +17°C° 0 mm 4 mps 750 mmHg 67%
    12:00 +18°C° 0 mm 4 mps 750 mmHg 64%
    13:00 +18°C° 0 mm 4 mps 750 mmHg 60%
    14:00 +17°C° 0 mm 3 mps 749 mmHg 65%
    15:00 +16°C° 0 mm 3 mps 749 mmHg 69%
    16:00 +15°C° 0 mm 2 mps 749 mmHg 73%
    17:00 +14°C° 0 mm 2 mps 749 mmHg 77%
    18:00 +13°C° 0 mm 1 mps 749 mmHg 82%
    19:00 +12°C° 0 mm 1 mps 749 mmHg 86%
    20:00 +12°C° 0 mm 1 mps 750 mmHg 87%
    21:00 +11°C° 0 mm 1 mps 750 mmHg 88%
    22:00 +11°C° 0 mm 1 mps 750 mmHg 89%
    23:00 +11°C° 0 mm 1 mps 750 mmHg 90%

    Day after tomorrow, 19 October, Thursday

    Time Temperature Precipitation Wind Pressure Humidity
    00:00 +10°C° 0 mm 1 mps 750 mmHg 91%
    01:00 +10°C° 0 mm 1 mps 750 mmHg 92%
    02:00 +10°C° 0 mm 1 mps 750 mmHg 92%
    03:00 +10°C° 0 mm 1 mps 749 mmHg 93%
    04:00 +9°C° 0 mm 1 mps 749 mmHg 93%
    05:00 +10°C° 0 mm 1 mps 749 mmHg 93%
    06:00 +10°C° 0 mm 1 mps 750 mmHg 93%
    07:00 +10°C° 0 mm 1 mps 750 mmHg 94%
    08:00 +11°C° 0 mm 1 mps 750 mmHg 88%
    09:00 +12°C° 0 mm 1 mps 750 mmHg 82%
    10:00 +14°C° 0 mm 1 mps 750 mmHg 76%
    11:00 +14°C° 0 mm 1 mps 750 mmHg 74%
    12:00 +15°C° 0 mm 1 mps 750 mmHg 72%
    13:00 +15°C° 0 mm 2 mps 750 mmHg 70%
    14:00 +15°C° 0 mm 2 mps 750 mmHg 74%
    15:00 +14°C° 0 mm 2 mps 750 mmHg 78%
    16:00 +13°C° 0 mm 2 mps 751 mmHg 82%
    17:00 +13°C° 0 mm 2 mps 751 mmHg 85%
    18:00 +12°C° 0 mm 2 mps 751 mmHg 89%
    19:00 +10°C° 0 mm 2 mps 752 mmHg 92%
    20:00 +10°C° 0 mm 2 mps 752 mmHg 91%
    21:00 +9°C° 0 mm 2 mps 752 mmHg 90%
    22:00 +9°C° 0 mm 3 mps 752 mmHg 89%
    23:00 +9°C° 0 mm 3 mps 753 mmHg 88%

    20 October, Friday

    Time Temperature Precipitation Wind Pressure Humidity
    00:00 +9°C° 0 mm 2 mps 753 mmHg 86%
    01:00 +8°C° 0 mm 2 mps 753 mmHg 85%
    02:00 +8°C° 0 mm 2 mps 753 mmHg 85%
    03:00 +8°C° 0 mm 3 mps 753 mmHg 84%
    04:00 +8°C° 0 mm 3 mps 753 mmHg 84%
    05:00 +8°C° 0 mm 3 mps 753 mmHg 84%
    06:00 +8°C° 0 mm 3 mps 753 mmHg 83%
    07:00 +8°C° 0 mm 3 mps 753 mmHg 83%
    08:00 +9°C° 0 mm 3 mps 754 mmHg 79%
    09:00 +10°C° 0 mm 3 mps 754 mmHg 76%
    10:00 +11°C° 0 mm 3 mps 754 mmHg 72%
    11:00 +11°C° 0 mm 3 mps 754 mmHg 71%
    12:00 +12°C° 0 mm 3 mps 753 mmHg 69%
    13:00 +13°C° 0 mm 3 mps 753 mmHg 68%
    14:00 +12°C° 0 mm 3 mps 753 mmHg 71%
    15:00 +12°C° 0 mm 3 mps 753 mmHg 73%
    16:00 +12°C° 0 mm 2 mps 753 mmHg 76%
    17:00 +11°C° 0 mm 3 mps 753 mmHg 78%
    18:00 +11°C° 0 mm 3 mps 753 mmHg 80%
    19:00 +11°C° 0 mm 3 mps 753 mmHg 82%
    20:00 +11°C° 0.1 mm 3 mps 753 mmHg 84%
    21:00 +11°C° 0.1 mm 4 mps 752 mmHg 86%
    22:00 +11°C° 0.1 mm 4 mps 752 mmHg 88%
    23:00 +11°C° 0.5 mm 4 mps 752 mmHg 89%

    21 October, Saturday

    Time Temperature Precipitation Wind Pressure Humidity
    00:00 +11°C° 0.5 mm 4 mps 751 mmHg 90%
    01:00 +12°C° 0.5 mm 4 mps 751 mmHg 91%
    02:00 +12°C° 0.1 mm 4 mps 750 mmHg 91%
    03:00 +12°C° 0.1 mm 4 mps 750 mmHg 92%
    04:00 +12°C° 0.1 mm 4 mps 749 mmHg 92%
    05:00 +12°C° 0 mm 4 mps 749 mmHg 91%
    06:00 +12°C° 0 mm 4 mps 749 mmHg 91%
    07:00 +12°C° 0 mm 4 mps 748 mmHg 90%
    08:00 +12°C° 0.1 mm 3 mps 748 mmHg 89%
    09:00 +12°C° 0.1 mm 3 mps 748 mmHg 88%
    10:00 +12°C° 0.1 mm 3 mps 748 mmHg 87%
    11:00 +13°C° 0.6 mm 3 mps 748 mmHg 85%
    12:00 +14°C° 0.6 mm 3 mps 748 mmHg 82%
    13:00 +14°C° 0.6 mm 3 mps 748 mmHg 80%
    14:00 +14°C° 0.1 mm 3 mps 748 mmHg 81%
    15:00 +13°C° 0.1 mm 3 mps 748 mmHg 83%
    16:00 +13°C° 0.1 mm 2 mps 748 mmHg 84%
    17:00 +12°C° 0 mm 2 mps 748 mmHg 87%
    18:00 +10°C° 0 mm 2 mps 749 mmHg 90%
    19:00 +9°C° 0 mm 2 mps 749 mmHg 93%
    20:00 +9°C° 0 mm 2 mps 750 mmHg 93%
    21:00 +8°C° 0 mm 2 mps 750 mmHg 94%
    22:00 +8°C° 0 mm 2 mps 750 mmHg 94%
    23:00 +8°C° 0 mm 2 mps 750 mmHg 93%

    22 October, Sunday

    Time Temperature Precipitation Wind Pressure Humidity
    00:00 +8°C° 0 mm 2 mps 751 mmHg 92%
    01:00 +7°C° 0 mm 2 mps 751 mmHg 91%
    02:00 +7°C° 0 mm 3 mps 751 mmHg 91%
    03:00 +7°C° 0 mm 3 mps 751 mmHg 90%
    04:00 +7°C° 0 mm 3 mps 751 mmHg 89%
    05:00 +7°C° 0 mm 3 mps 751 mmHg 89%
    06:00 +6°C° 0 mm 4 mps 751 mmHg 89%
    07:00 +6°C° 0 mm 4 mps 751 mmHg 89%
    08:00 +6°C° 0 mm 4 mps 751 mmHg 87%
    09:00 +7°C° 0 mm 4 mps 751 mmHg 85%
    10:00 +7°C° 0 mm 4 mps 751 mmHg 84%
    11:00 +7°C° 0 mm 4 mps 751 mmHg 83%
    12:00 +8°C° 0 mm 4 mps 751 mmHg 82%
    13:00 +8°C° 0 mm 4 mps 750 mmHg 81%
    14:00 +8°C° 0.1 mm 4 mps 750 mmHg 82%
    15:00 +8°C° 0.1 mm 4 mps 750 mmHg 84%
    16:00 +9°C° 0.1 mm 3 mps 750 mmHg 85%
    17:00 +9°C° 0.7 mm 3 mps 750 mmHg 86%
    18:00 +8°C° 0.7 mm 3 mps 750 mmHg 88%
    19:00 +8°C° 0.7 mm 3 mps 750 mmHg 89%
    20:00 +8°C° 1.6 mm 3 mps 749 mmHg 91%
    21:00 +8°C° 1.6 mm 3 mps 749 mmHg 92%
    22:00 +7°C° 1.6 mm 3 mps 749 mmHg 93%
    23:00 +7°C° 1.1 mm 2 mps 749 mmHg 93%
    Show more